User: anonymous   Login
Location: S�tio Afonso Gruber
(26.1760°S, 49.5250°W)
Time: 10:33:43
(UTC+00:00)
Language:

COSMOS 1408 DEB - Orbit

View from above orbital plane
View from above orbital plane
View from above satellite
View from above satellite

Ground track
Ground track

The orbit data is extracted from the following two-line orbital elements,

1 51215U 82092BAR 23195.52931359  .03516466 -12128-5  13099-2 0  9997
2 51215  82.5426 223.6633 0010198 230.4582 129.5809 16.24376031 86024
Epoch (UTC): 14 July 2023 12:42:12
Eccentricity: 0.0010198
inclination: 82.5426°
perigee height: 201 km
apogee height: 214 km
right ascension of ascending node: 223.6633°
argument of perigee: 230.4582°
revolutions per day: 16.24376031
mean anomaly at epoch: 129.5809°
orbit number at epoch: 8602

The dashed part of the orbit path shows where the satellite is in the earth's shadow,  

DLR